Back to catalog

SPACEEYE-T1

AliveScienceSSO
NORAD 63229·PAYLOAD·🇰🇷 South Korea

Launched Mar 15, 2025 from Vandenberg Space Force Base

Loading…

Next Passes (next 24 hours)

TLE

FreshSource: Space-Track

Epoch: Sep 14, 2026, 15:02 UTC

1 63229U 25052V   26257.62682651  .00003741  00000-0  16133-3 0  9996
2 63229  97.3805 148.7120 0004493 174.7768 185.3517 15.23156546 83457

Track SPACEEYE-T1 in real time with AllMySat

Download on the App Store